Weather History for CWHV - September, 2013

Change the Weather History Date:

Tuesday, September 17, 2013

  Actual Average Record
Temperature  
Mean Temperature 46 °F -  
Max Temperature 60 °F - - ()
Min Temperature 31 °F - - ()
Degree Days  
Heating Degree Days 20    
Moisture  
Dew Point 37 °F    
Average Humidity 75    
Maximum Humidity 100    
Minimum Humidity 32    
Precipitation  
Precipitation 0.00 in - - ()
Sea Level Pressure  
Sea Level Pressure 30.33 in    
Wind  
Wind Speed 3 mph ()    
Max Wind Speed 8 mph    
Max Gust Speed -    
T = Trace of Precipitation, MM = Missing Value Source: Averaged Metar Reports

Daily Weather History Graph

Daily Weather History Graph

Search for Another Location

Airport or City:

Trip Planner

Search our weather history database for the weather conditions in past years. The results will help you decide how hot, cold, wet, or windy it might be!

Date:

Astronomy

Sep. 17, 2013 Rise Set
Actual Time 6:23 AM EDT 6:50 PM EDT
Civil Twilight 5:53 AM EDT 7:20 PM EDT
Nautical Twilight 5:18 AM EDT 7:55 PM EDT
Astronomical Twilight 4:41 AM EDT 8:32 PM EDT
Moon 5:38 PM EDT (9/17) 4:10 AM EDT (9/17)
Length of Visible Light 13h 26m
Length of Day
12h 26m
Waxing Gibbous, 96% of the Moon is Illuminated
Sep 17
Waxing Gibbous
Sep 19
Full
Sep 26
Last Quarter
Oct 4
New
Oct 11
First Quarter

Hourly Weather History & Observations

Time (EDT) Temp. Windchill Dew Point Humidity Pressure Visibility Wind Dir Wind Speed Gust Speed Precip Events Conditions
12:00 AM 34.9 °F - 33.6 °F 95% 30.29 in - West 1.2 mph - N/A   Unknown
1:00 AM 33.8 °F - 33.1 °F 97% 30.30 in - SSW 2.3 mph - N/A   Unknown
2:00 AM 34 °F - 33 °F 97% 30.32 in - SSE 1.2 mph - -  
2:00 AM 33.8 °F - 33.4 °F 99% 30.32 in - SSE 1.2 mph - N/A   Unknown
3:00 AM 34.2 °F - 33.8 °F 99% 30.32 in - Calm Calm - N/A   Unknown
4:00 AM 34.9 °F 32.0 °F 34.5 °F 99% 30.32 in - South 3.5 mph - N/A   Unknown
5:00 AM 32.9 °F - 32.9 °F 100% 30.34 in - SE 1.2 mph - N/A   Unknown
6:00 AM 31.5 °F - 31.5 °F 100% 30.36 in - SSE 2.3 mph - N/A   Unknown
7:00 AM 31.8 °F - 31.8 °F 100% 30.38 in - South 2.3 mph - N/A   Unknown
8:00 AM 34 °F - 34 °F 99% 30.39 in - SE 4.6 mph - -  
8:00 AM 33.8 °F 29.6 °F 33.8 °F 100% 30.39 in - SE 4.6 mph - N/A   Unknown
9:00 AM 38.3 °F - - N/A% 30.40 in - South 1.2 mph - N/A   Unknown
10:00 AM 46.4 °F - - N/A% 30.40 in - ENE 2.3 mph - N/A   Unknown
11:00 AM 52.9 °F - 41.4 °F 65% 30.40 in - WSW 4.6 mph - N/A   Unknown
12:00 PM 56.1 °F - 40.3 °F 55% 30.38 in - WSW 6.9 mph - N/A   Unknown
1:00 PM 58.3 °F - 37.9 °F 47% 30.37 in - West 6.9 mph - N/A   Unknown
2:00 PM 59 °F - 37 °F 32% 30.35 in - West 8.1 mph - -  
2:00 PM 58.8 °F - 36.9 °F 44% 30.35 in - West 8.1 mph - N/A   Unknown
3:00 PM 59.7 °F - 37.8 °F 44% 30.33 in - WNW 4.6 mph - N/A   Unknown
4:00 PM 60.3 °F - 40.8 °F 49% 30.31 in - West 5.8 mph - N/A   Unknown
5:00 PM 59.5 °F - 39.6 °F 48% 30.30 in - WSW 5.8 mph - N/A   Unknown
6:00 PM 56.5 °F - 40.8 °F 56% 30.30 in - West 3.5 mph - N/A   Unknown
7:00 PM 52.2 °F - 42.4 °F 69% 30.29 in - WSW 2.3 mph - N/A   Unknown
8:00 PM 51 °F - 42 °F 62% 30.28 in - South 2.3 mph - -  
8:00 PM 50.7 °F - 41.9 °F 72% 30.28 in - South 2.3 mph - N/A   Unknown
9:00 PM 50.5 °F - 41.7 °F 72% 30.27 in - SSW 3.5 mph - N/A   Unknown
10:00 PM 49.3 °F - 40.6 °F 72% 30.25 in - South 2.3 mph - N/A   Unknown
11:00 PM 48.6 °F - 40.8 °F 75% 30.26 in - SSW 2.3 mph - N/A   Unknown